$Date,$Time,DM0201B,DM0203B,DM0205B,DM0207B,DM0209B
11/12/98,00:00:01,135,185,-13,384,951
11/12/98,00:05:01,126,184,-13,381,951
11/12/98,00:10:01,169,184,-13,367,951
11/12/98,00:15:01,112,181,-12,362,951
11/12/98,00:20:01,159,171,-12,368,951
11/12/98,00:25:01,144,179,-12,364,951
11/12/98,00:30:01,112,191,-12,356,951
11/12/98,00:35:01,138,178,-12,372,951
11/12/98,00:40:01,139,170,-12,355,951
11/12/98,00:45:01,138,165,-12,349,951
11/12/98,00:50:01,112,174,-12,355,951
11/12/98,00:55:01,73,159,-11,373,951
11/12/98,01:00:01,64,174,-11,402,951
11/12/98,01:05:01,85,38,-11,415,951
11/12/98,01:10:01,68,51,-11,400,951
11/12/98,01:15:01,67,37,-11,417,951
11/12/98,01:20:01,13,205,-10,438,951
11/12/98,01:25:01,37,211,-10,387,951
11/12/98,01:30:01,36,351,-11,384,951
11/12/98,01:35:01,31,19,-11,345,951
11/12/98,01:40:01,24,13,-11,336,951
11/12/98,01:45:01,71,176,-10,333,951
11/12/98,01:50:01,76,196,-11,351,951
11/12/98,01:55:01,47,181,-11,336,951
11/12/98,02:00:01,82,192,-11,369,951
11/12/98,02:05:01,65,189,-11,355,951
11/12/98,02:10:01,57,188,-11,384,951
11/12/98,02:15:01,75,196,-11,402,951
11/12/98,02:20:01,82,198,-11,401,951
11/12/98,02:25:01,86,197,-11,393,951
11/12/98,02:30:01,97,189,-11,395,951
11/12/98,02:35:01,123,189,-11,371,951
11/12/98,02:40:01,108,182,-10,354,951
11/12/98,02:45:01,129,185,-10,357,951
11/12/98,02:50:01,89,183,-10,365,951
11/12/98,02:55:01,90,183,-9,392,951
11/12/98,03:00:01,93,193,-9,416,951
11/12/98,03:05:01,79,209,-9,428,951
11/12/98,03:10:01,74,189,-8,468,951
11/12/98,03:15:01,103,194,-7,538,951
11/12/98,03:20:01,88,189,-6,570,951
11/12/98,03:25:01,89,178,-6,603,951
11/12/98,03:30:01,111,191,-6,622,951
11/12/98,03:35:01,89,181,-4,582,951
11/12/98,03:40:01,79,201,-4,588,951
11/12/98,03:45:01,100,176,-4,639,951
11/12/98,03:50:01,117,183,-5,638,951
11/12/98,03:55:01,123,186,-4,588,951
11/12/98,04:00:01,128,174,-6,307,951
11/12/98,04:05:01,124,178,-6,356,951
11/12/98,04:10:01,122,185,-8,238,951
11/12/98,04:15:01,122,185,-9,213,951
11/12/98,04:20:01,148,185,-10,201,951
11/12/98,04:25:01,145,175,-11,197,951
11/12/98,04:30:01,134,183,-11,193,951
11/12/98,04:35:01,165,183,-11,191,951
11/12/98,04:40:01,168,183,-11,183,951
11/12/98,04:45:01,132,183,-11,175,951
11/12/98,04:50:01,138,183,-11,179,951
11/12/98,04:55:01,131,183,-11,209,951
11/12/98,05:00:01,112,183,-11,237,951
11/12/98,05:05:01,147,183,-10,255,951
11/12/98,05:10:01,100,184,-10,354,951
11/12/98,05:15:01,159,184,-10,390,951
11/12/98,05:20:01,175,184,-9,368,951
11/12/98,05:25:01,160,184,-8,378,951
11/12/98,05:30:01,131,184,-8,395,951
11/12/98,05:35:01,154,184,-6,399,951
11/12/98,05:40:01,161,184,-8,329,951
11/12/98,05:45:01,147,184,-8,290,951
11/12/98,05:50:01,166,184,-8,357,951
11/12/98,05:55:01,165,185,-8,366,951
11/12/98,06:00:01,161,190,-9,373,951
11/12/98,06:05:01,174,179,-9,371,951
11/12/98,06:10:01,158,179,-8,369,951
11/12/98,06:15:01,184,179,-8,359,951
11/12/98,06:20:01,174,182,-8,336,951
11/12/98,06:25:01,162,182,-8,347,951
11/12/98,06:30:01,138,175,-8,325,951
11/12/98,06:35:01,154,176,-8,261,951
11/12/98,06:40:01,162,176,-9,218,951
11/12/98,06:45:01,206,176,-9,295,951
11/12/98,06:50:01,200,176,-8,303,951
11/12/98,06:55:01,201,176,-9,239,951
11/12/98,07:00:01,234,176,-9,266,951
11/12/98,07:05:01,209,176,-9,242,951
11/12/98,07:10:01,202,176,-9,200,951
11/12/98,07:15:01,226,176,-9,199,951
11/12/98,07:20:01,219,176,-10,210,951
11/12/98,07:25:01,188,176,-9,203,951
11/12/98,07:30:01,209,176,-9,220,951
11/12/98,07:35:01,133,184,-9,218,951
11/12/98,07:40:01,162,170,-9,223,951
11/12/98,07:45:01,179,170,-10,150,951
11/12/98,07:50:01,160,171,-9,196,951
11/12/98,07:55:01,205,171,-10,203,951
11/12/98,08:00:01,208,179,-11,238,951
11/12/98,08:05:01,185,175,-10,238,951
11/12/98,08:10:01,207,175,-10,232,951
11/12/98,08:15:01,170,175,-10,228,951
11/12/98,08:20:01,220,175,-10,222,951
11/12/98,08:25:01,201,175,-9,216,951
11/12/98,08:30:01,196,175,-10,212,951
11/12/98,08:35:01,199,175,-10,206,951
11/12/98,08:40:01,212,175,-10,202,951
11/12/98,08:45:01,194,175,-10,200,951
11/12/98,08:50:01,166,175,-10,196,951
11/12/98,08:55:01,188,177,-10,192,951
11/12/98,09:00:01,180,177,-10,186,951
11/12/98,09:05:01,179,177,-10,180,951
11/12/98,09:10:01,191,180,-10,165,951
11/12/98,09:15:01,162,180,-10,150,951
11/12/98,09:20:01,172,181,-10,167,951
11/12/98,09:25:01,201,178,-10,153,951
11/12/98,09:30:01,183,168,-10,102,951
11/12/98,09:35:01,187,178,-10,54,951
11/12/98,09:40:01,207,178,-11,52,951
11/12/98,09:45:01,204,178,-11,117,951
11/12/98,09:50:01,196,178,-11,143,951
11/12/98,09:55:01,211,178,-11,139,951
11/12/98,10:00:01,206,178,-11,135,951
11/12/98,10:05:01,213,168,-11,131,951
11/12/98,10:10:01,202,168,-12,129,951
11/12/98,10:15:01,228,169,-12,123,951
11/12/98,10:20:01,258,179,-12,121,951
11/12/98,10:25:01,202,179,-12,117,951
11/12/98,10:30:01,180,179,-12,115,951
11/12/98,10:35:01,145,181,-12,111,951
11/12/98,10:40:01,184,167,-12,109,951
11/12/98,10:45:01,237,168,-12,107,951
11/12/98,10:50:01,228,175,-12,105,951
11/12/98,10:55:01,190,188,-13,103,951
11/12/98,11:00:01,225,175,-13,101,951
11/12/98,11:05:01,229,175,-13,97,951
11/12/98,11:10:01,202,173,-13,97,951
11/12/98,11:15:01,202,173,-13,93,951
11/12/98,11:20:01,204,163,-13,93,951
11/12/98,11:25:01,212,164,-14,91,951
11/12/98,11:30:01,195,169,-14,89,951
11/12/98,11:35:01,201,169,-14,87,951
11/12/98,11:40:01,195,169,-13,85,949
11/12/98,11:45:01,199,169,-13,83,949
11/12/98,11:50:01,191,169,-13,83,949
11/12/98,11:55:01,191,169,-13,81,949
11/12/98,12:00:01,206,179,-13,81,949
11/12/98,12:05:01,193,180,-14,79,949
11/12/98,12:10:01,200,170,-14,79,949
11/12/98,12:15:01,195,180,-14,77,949
11/12/98,12:20:01,191,175,-14,72,949
11/12/98,12:25:01,172,176,-14,61,949
11/12/98,12:30:01,181,177,-14,61,949
11/12/98,12:35:01,180,177,-14,63,949
11/12/98,12:40:01,185,177,-14,63,949
11/12/98,12:45:01,187,177,-14,65,949
11/12/98,12:50:01,173,177,-14,67,949
11/12/98,12:55:01,184,177,-14,69,949
11/12/98,13:00:01,171,177,-15,69,949
11/12/98,13:05:01,152,167,-14,69,949
11/12/98,13:10:01,160,167,-14,71,949
11/12/98,13:15:01,142,166,-14,71,949
11/12/98,13:20:01,159,166,-14,71,949
11/12/98,13:25:01,129,166,-14,73,949
11/12/98,13:30:01,147,168,-14,75,949
11/12/98,13:35:01,138,168,-14,77,949
11/12/98,13:40:01,113,168,-14,77,949
11/12/98,13:45:01,141,168,-14,77,949
11/12/98,13:50:01,122,168,-14,79,949
11/12/98,13:55:01,130,170,-14,81,949
11/12/98,14:00:01,123,170,-14,81,949
11/12/98,14:05:01,146,173,-15,83,949
11/12/98,14:10:01,145,173,-15,85,949
11/12/98,14:15:01,116,172,-15,87,949
11/12/98,14:20:01,151,172,-15,89,949
11/12/98,14:25:01,133,172,-15,91,949
11/12/98,14:30:01,130,172,-15,93,949
11/12/98,14:35:01,104,170,-15,95,949
11/12/98,14:40:01,135,170,-15,99,949
11/12/98,14:45:01,110,170,-15,101,949
11/12/98,14:50:01,108,170,-15,103,949
11/12/98,14:55:01,95,170,-15,105,949
11/12/98,15:00:01,94,166,-14,109,949
11/12/98,15:05:01,99,166,-14,111,949
11/12/98,15:10:01,112,164,-14,117,949
11/12/98,15:15:01,105,164,-14,119,949
11/12/98,15:20:01,83,164,-14,105,949
11/12/98,15:25:01,99,164,-14,94,949
11/12/98,15:30:01,91,169,-15,94,949
11/12/98,15:35:01,111,175,-15,111,949
11/12/98,15:40:01,130,174,-15,138,949
11/12/98,15:45:01,131,174,-15,140,949
11/12/98,15:50:01,98,176,-15,144,949
11/12/98,15:55:01,114,176,-15,148,949
11/12/98,16:00:01,114,176,-15,152,949
11/12/98,16:05:01,111,166,-15,154,949
11/12/98,16:10:01,89,166,-15,158,949
11/12/98,16:15:01,80,175,-15,162,949
11/12/98,16:20:01,112,172,-15,164,949
11/12/98,16:25:01,91,161,-15,168,949
11/12/98,16:30:01,97,174,-15,172,949
11/12/98,16:35:01,99,174,-15,176,949
11/12/98,16:40:01,81,155,-15,180,949
11/12/98,16:45:01,79,165,-15,184,949
11/12/98,16:50:01,92,165,-15,188,949
11/12/98,16:55:01,95,165,-14,192,949
11/12/98,17:00:01,83,162,-14,194,949
11/12/98,17:05:01,92,168,-14,198,949
11/12/98,17:10:01,79,168,-14,202,949
11/12/98,17:15:01,90,168,-14,206,949
11/12/98,17:20:01,87,166,-14,208,949
11/12/98,17:25:01,66,157,-14,212,949
11/12/98,17:30:01,84,152,-14,216,949
11/12/98,17:35:01,81,178,-14,218,949
11/12/98,17:40:01,74,178,-14,220,949
11/12/98,17:45:01,63,167,-14,224,949
11/12/98,17:50:01,58,170,-14,228,949
11/12/98,17:55:01,71,159,-14,230,947
11/12/98,18:00:01,59,157,-14,234,947
11/12/98,18:05:01,48,155,-14,238,947
11/12/98,18:10:01,37,157,-14,242,947
11/12/98,18:15:01,37,168,-14,244,947
11/12/98,18:20:01,51,154,-14,248,947
11/12/98,18:25:01,51,168,-14,250,947
11/12/98,18:30:01,51,157,-14,254,947
11/12/98,18:35:01,54,160,-14,256,947
11/12/98,18:40:01,38,148,-14,260,947
11/12/98,18:45:01,25,160,-14,262,947
11/12/98,18:50:01,35,147,-14,266,947
11/12/98,18:55:01,44,147,-14,270,947
11/12/98,19:00:01,29,135,-14,272,947
11/12/98,19:05:01,25,128,-14,274,947
11/12/98,19:10:01,26,146,-14,278,947
11/12/98,19:15:01,16,141,-14,281,947
11/12/98,19:20:01,8,142,-14,285,947
11/12/98,19:25:01,5,122,-13,285,947
11/12/98,19:30:01,8,5,-14,287,947
11/12/98,19:35:01,33,6,-14,289,947
11/12/98,19:40:01,26,9,-14,291,947
11/12/98,19:45:01,50,9,-14,295,947
11/12/98,19:50:01,39,9,-14,297,947
11/12/98,19:55:01,33,25,-14,299,947
11/12/98,20:00:01,38,352,-14,303,947
11/12/98,20:05:01,41,18,-15,303,947
11/12/98,20:10:01,45,2,-15,307,947
11/12/98,20:15:01,36,14,-15,309,947
11/12/98,20:20:01,34,4,-15,311,947
11/12/98,20:25:01,32,14,-15,315,947
11/12/98,20:30:01,36,349,-15,319,947
11/12/98,20:35:01,30,359,-15,323,947
11/12/98,20:40:01,31,18,-15,327,947
11/12/98,20:45:01,66,7,-15,329,947
11/12/98,20:50:01,55,19,-15,333,947
11/12/98,20:55:01,37,22,-15,337,947
11/12/98,21:00:01,66,11,-15,341,947
11/12/98,21:05:01,57,33,-15,345,947
11/12/98,21:10:01,53,30,-15,349,947
11/12/98,21:15:01,57,28,-14,353,947
11/12/98,21:20:01,75,31,-14,359,947
11/12/98,21:25:01,69,19,-14,363,947
11/12/98,21:30:01,70,19,-14,367,947
11/12/98,21:35:01,67,15,-14,373,947
11/12/98,21:40:01,63,20,-14,377,947
11/12/98,21:45:01,74,16,-14,381,947
11/12/98,21:50:01,60,15,-14,387,947
11/12/98,21:55:01,57,5,-14,393,947
11/12/98,22:00:01,77,20,-14,395,947
11/12/98,22:05:01,49,18,-14,399,947
11/12/98,22:10:01,60,14,-15,405,947
11/12/98,22:15:01,58,5,-14,411,947
11/12/98,22:20:01,58,19,-15,414,947
11/12/98,22:25:01,57,8,-15,418,947
11/12/98,22:30:01,39,3,-15,422,947
11/12/98,22:35:01,68,9,-15,428,947
11/12/98,22:40:01,78,5,-15,432,947
11/12/98,22:45:01,58,18,-15,436,947
11/12/98,22:50:01,70,17,-15,440,947
11/12/98,22:55:01,61,4,-15,444,947
11/12/98,23:00:01,67,18,-15,448,947
11/12/98,23:05:01,59,19,-15,452,947
11/12/98,23:10:01,64,14,-15,458,947
11/12/98,23:15:01,74,16,-14,462,947
11/12/98,23:20:01,78,9,-15,464,947
11/12/98,23:25:01,78,21,-14,470,947
11/12/98,23:30:01,59,22,-14,472,947
11/12/98,23:35:01,58,16,-14,476,947
11/12/98,23:40:01,78,7,-14,480,947
11/12/98,23:45:01,56,32,-14,484,947
11/12/98,23:50:01,70,16,-14,486,947
11/12/98,23:55:01,65,11,-14,490,947
11/13/98,00:00:01,70,11,-14,494,947
